Regional Weather Roundup
Issued by NWS

Home | Current Version | Previous Version | Text Only | Print | Product List | Glossary On
Versions: 1 2 3 4 5 6 7 8 9 10 11 12 13 14 15 16 17 18 19 20 21 22 23 24 25 26 27 28 29 30 31 32 33 34 35 36 37 38 39 40 41 42 43 44 45 46 47 48 49 50
000
ASUS43 KTOP 181308
RWRKS

WEATHER ROUNDUP FOR KANSAS
NATIONAL WEATHER SERVICE GOODLAND KS
700 AM CST SAT NOV 18 2017

NOTE:  "FAIR" INDICATES FEW OR NO CLOUDS BELOW 12,000 FEET WITH NO
SIGNIFICANT WEATHER AND/OR OBSTRUCTIONS TO VISIBILITY.

KSZ001>006-013>018-027>032-041>047-181400-
NORTHWEST KANSAS

CITY           SKY/WX    TMP DP  RH WIND       PRES   REMARKS
GOODLAND       CLEAR     34  29  82 NW22G31   30.08R WCI  22
HAYS           LGT RAIN  40  37  89 N23G35    29.95R WCI  30
HILL CITY      LGT RAIN  39  37  92 N24G33    30.00R WCI  28
RUSSELL        LGT RAIN  40  39  97 N25G33    29.93R WCI  29
$$

KSZ061>065-074>080-084>089-181400-
SOUTHWEST KANSAS

CITY           SKY/WX    TMP DP  RH WIND       PRES   REMARKS
DODGE CITY     CLOUDY    41  37  86 N22G41    29.99R
ELKHART        CLOUDY    42  32  68 N26G33    30.10R
GARDEN CITY    LGT RAIN  41  37  86 N29G45    30.03R
GREAT BEND     LGT RAIN  41  38  89 NW21G31   29.93R
LIBERAL        CLOUDY    44  33  65 NW32G39   30.02R
PRATT          CLOUDY    42  38  88 N26G35    29.89R
$$

KSZ066>073-081>083-090>101-181400-
SOUTHEAST KANSAS

CITY           SKY/WX    TMP DP  RH WIND       PRES   REMARKS
CHANUTE        LGT RAIN  50  48  93 NW24G39   29.63R FOG
COFFEYVILLE    CLOUDY    54  49  83 NW20G28   29.63R
HUTCHINSON     LGT RAIN  45  41  86 NW17G35   29.85R
MEDICINE LODGE   N/A     47  41  80 NW25G40   29.88R
NEWTON         CLOUDY    44  40  85 N25G38    29.81R
PARSONS        CLOUDY    52  50  93 NW21G30   29.63R
WICHITA INTL   CLOUDY    47  41  80 N29G41    29.81R
WICHITA JABRA  CLOUDY    47  41  80 NW29G37   29.79R
WICHITA MCCONL CLOUDY    47  40  74 N30G40    29.79R
WINFIELD       CLOUDY    50  41  71 NW26G38   29.78R
$$

KSZ007>012-019>026-033>040-048>060-102>105-181400-
NORTHEAST KANSAS

CITY           SKY/WX    TMP DP  RH WIND       PRES   REMARKS
CONCORDIA      CLOUDY    41  36  82 NW18G30   29.85R
EMPORIA        CLOUDY    45  41  86 N21G32    29.71R
LAWRENCE       CLOUDY    46  42  86 NW23G36   29.65R
MANHATTAN      CLOUDY    45  39  79 N14G25    29.79R
MARYSVILLE     CLOUDY    41  37  87 N17G25    29.80R
OLATHE IND     LGT RAIN  45  43  93 N26G38    29.62R
OLATHE EXE     LGT RAIN  46  43  89 N26G38    29.59R
SALINA         LGT RAIN  44  40  85 NW25G33   29.87R
TOPEKA BILLARD LGT RAIN  45  42  89 N23G35    29.70R
TOPEKA FORBES  CLOUDY    46  41  82 N28G38    29.68R
$$



USA.gov is the U.S. government's official web portal to all federal, state and local government web resources and services.